Погода в Салдусе

Погода в Салдусе : погода сейчас, прогноз погоды и архив. Всё, что Вы хотите узнать о погоде в Салдусе!

Поиск расширенной информации на нашем сайте:

Другие новости

Новости СМИ2

Главная страница сайта

Новости сайта

03.07.2017

Напоминаем, что на нашем специализированном сайте Метеоцентр.Азия вы можете получить высокодетализированные автоматические прогнозы погоды по пунктам России, СНГ и мира в авиационном формате (включающие направление и скорость ветра, видимость, явления погоды, количество и форму облачности, нижнюю и верхнюю границу облачности).


Погода в Салдусе - сегодня

Время (UTC), дата Ветер
(°,м/с) 
Видим.   Явления Облачность Т
(°С)
Тd
(°С)
f(%) Тe
(°С)
Pmin
(гПа)
dP
(гПа)
Po
(мм)
O2
(г/м3)
Тmin Tmax R s Состояние
почвы
03 25.05.18 080 (В) 2-3  н/о    н/о 
+11.9 +9.3 84 +12  1026.8  760  292           
06 25.05.18 100 (В) 2-4  н/о    н/о 
+18 +11.5 66 +22  1027  0.4  760  285           
09 25.05.18 070 (В) 3-5  н/о    н/о 
+22.7 +11.9 50 +26  1027  0.2  760  281           
12 25.05.18 090 (В) 2-4  н/о    н/о 
+24.7 +10.5 41 +26  1026.4  -0.5  760  279           
15 25.05.18 060 (СВ) 3-7  н/о    н/о 
+24.5 +11.8 45 +28  1025.8  -0.6  759  279           
18 25.05.18 050 (СВ) 3-5  н/о    н/о 
+20.4 +10.6 53 +22  1026.3  0.3  760  283           
21 25.05.18 060 (СВ) 1-3  н/о    н/о 
+15.4 +10.6 73 +19  1027.4  760  288           
00 26.05.18 090 (В) 2-2  н/о    н/о 
+13.6 +10.7 83 +16  1028.1  0.6  761  290           
03 26.05.18 080 (В) 2-3  н/о    н/о 
+14.5 +9.8 73 +16  1028  0.1  761  289           
06 26.05.18 130 (ЮВ) 2-4  н/о    н/о 
+20.1 +12.5 62 +24  1027.9  0.3  761  283           
09 26.05.18 130 (ЮВ) 3-6  н/о    н/о 
+24.4 +14.2 53 +31  1027.6  -0.2  761  279           
12 26.05.18 130 (ЮВ) 3-6  н/о    н/о 
+25.8 +12.4 43 +30  1026.7  -0.8  760  278           
15 26.05.18 130 (ЮВ) 4-6  н/о    н/о 
+24.6 +11.4 44 +27  1025.7  759  279           
18 26.05.18 110 (В) 1-2  н/о    н/о 
+20.9 +11.7 56 +24  1025.9  0.1  759  282           
21 26.05.18 070 (В) 1-1  н/о    н/о 
+16.8 +12.1 74 +22  1026.7  0.6  760  286           
00 27.05.18 060 (СВ) 1-2  н/о    н/о 
+12.8 +11.3 91 +17  1026.7  -0.2  760  290           
03 27.05.18 020 (С) 1-2  н/о    н/о 
+11.9 +10.8 93 +15  1026.4  -0.4  760  291           
06 27.05.18 070 (В) 2-3  н/о    н/о 
+21.4 +13.3 60 +27  1026.1  760  281           
09 27.05.18 060 (СВ) 2-4  н/о    н/о 
+25.4 +11.6 42 +28  1026.3  0.3  760  278           
12 27.05.18 060 (СВ) 2-6  н/о    н/о 
+26.3 +12.7 43 +31  1025.6  -0.6  759  277           
18 27.05.18 040 (СВ) 3-6  н/о    н/о 
+20.8 +7.8 43 +21  1025.9  759  283           
21 27.05.18 040 (СВ) 2-4  н/о    н/о 
+15.2 +7.7 61 +16  1027.3  1.1  760  289           
00 28.05.18 060 (СВ) 2-4  н/о    н/о 
+13.4 +6.3 62 +14  1028.3  0.8  761  291           
03 28.05.18 070 (В) 2-4  н/о    н/о 
+12 +6.2 68 +12  1028.8  761  293           
06 28.05.18 110 (В) 2-3  н/о    н/о 
+18.6 +7.5 48 +20  1028.8  0.3  761  286           
Время (UTC), дата Ветер
(°,м/с) 
Видим.   Явления Облачность Т
(°С)
Тd
(°С)
f(%) Тe
(°С)
Pmin
(гПа)
dP
(гПа)
Po
(мм)
O2
(г/м3)
Тmin Tmax R s Состояние
почвы

Для получения пояснительной информации подведите курсор к названию столбца.

ПОГОДА в Салдусе - архив

Всё, что Вы хотите узнать о погоде в Салдусе - удобно и подробно!

Выберите нужную дату (начиная с 1 января 2015* года) и нажмите кнопку "Найти".
Будут отображены архивные сводки погоды по пункту Салдус, начиная с указанной даты.


Отображать данные в формате CSV (для использования в таблицах Excel)


Внимание! Наш архив погоды предназначен исключительно для личного некоммерческого использования в познавательных целях. Если Вам необходимы официальные справки о состоянии погоды (для производственных, юридических, коммерческих и т.п. целей), обращайтесь в органы Росгидромета.

*Примечание: данная дата относится к архиву по метеостанциям СССР (Россия, СНГ, Балтия).
Архив по метеостанциям Зарубежной Европы и Азии (кроме Китая) хранится 10 дней, по другим регионам земного шара (Китай, Африка, Америка, Австралия, Океания) - 1 день.

Салдус - район местоположения метеостанции


Название, широта, долгота, высота метеостанции:
Салдус 56.7°ш. 22.5°д. 112 м над ур. моря [Латвия]

Дополнительная информация

В oтличие oт бoльшинства пoгoдных сайтoв мы публикуем пoдрoбную метеoинфoрмацию в детальнoм прoфессиoнальнoм фoрмате.

Характеристики температуры и влажнoсти вoздуха измеряются на высoте 2 м в тени вдали oт зданий и деревьев.
Скoрoсть ветра измеряется на высoте 10 м (на урoвне рoста челoвека скoрoсть ветра ниже в 1.5-2 раза). Если метеoстанция нахoдится в гoрoде или в лесу, тo скoрoсть ветра занижена на 2-4 м/с пo сравнению с oткрытым местoм. Скoрoсть ветра над акватoриями крупных рек и oзёр, а также на вершинах хoлмoв на 2-5 м/с выше, чем в oбычных услoвиях.
Атмoсфернoе давление в разных тoчках местнoсти мoжет значительнo oтличаться oт давления на метеoстанции, в зависимoсти oт услoвий рельефа (при пoдъёме на 10 м давление пoнижается примернo на 1 мм рт.ст.).